Check out our new BloomSky Weather System.

Active alerts


No alerts


Thunder radar  blitzortung!


Rain radar more information rain snow radar


Visit our other weather sites:

Template documentation
and downloads

And another site



Weather Underground History page Text

Daily Summary for January 30, 2018 Units:  English    Metric   Both
« Previous Day
Next Day »
Daily Weekly Monthly Yearly Custom
  High: Low: Average:
Temperature: TemperatureF °F 37.6 °F 49.5 °F
Dew Point: DewpointF °F 30.0 °F 33.7 °F
Humidity: Humidity % 30 % 56 %
Wind Speed: WindSpeedMPH mph 0.0 mph 1.4 mph
Wind Gust: WindSpeedGustMPH mph - -
Wind:- - South
Pressure: PressureIn in 30.29 in -
Precipitation: 0.00 in    
Historical Graphs
 
 
Tabular Data for January 30, 2018
Time Temperature Dew Point Pressure Wind Wind Speed Wind Gust Humidity Rainfall Rate (Hourly)
TemperatureF °F DewpointF °F PressureIn in Calm     Humidity % HourlyPrecipIn in
00:03 46.2 °F 33.4 °F 30.50 in Calm   4.0 mph 61 % 0.00 in
00:08 46.0 °F 33.3 °F 30.50 in North 2.0 mph 4.0 mph 61 % 0.00 in
00:13 45.9 °F 33.6 °F 30.50 in NNW 2.0 mph 4.0 mph 62 % 0.00 in
00:18 45.7 °F 33.4 °F 30.50 in NNW 1.0 mph 4.0 mph 62 % 0.00 in
00:23 45.5 °F 33.3 °F 30.50 in NW 1.0 mph 4.0 mph 62 % 0.00 in
00:28 45.3 °F 33.1 °F 30.50 in Calm   4.0 mph 62 % 0.00 in
00:33 45.1 °F 32.9 °F 30.50 in NNW 1.0 mph 4.0 mph 62 % 0.00 in
00:38 45.0 °F 33.1 °F 30.50 in NNW 1.0 mph 4.0 mph 63 % 0.00 in
00:43 45.0 °F 33.1 °F 30.50 in Calm   3.0 mph 63 % 0.00 in
00:48 44.8 °F 32.9 °F 30.50 in Calm   3.0 mph 63 % 0.00 in
00:53 44.4 °F 32.5 °F 30.50 in North 2.0 mph 3.0 mph 63 % 0.00 in
00:58 44.4 °F 33.1 °F 30.49 in North 1.0 mph 3.0 mph 64 % 0.00 in
01:03 44.2 °F 32.9 °F 30.49 in NNW 1.0 mph 3.0 mph 64 % 0.00 in
01:08 44.1 °F 32.7 °F 30.50 in NNW 1.0 mph 3.0 mph 64 % 0.00 in
01:13 44.1 °F 32.7 °F 30.50 in Calm   2.0 mph 64 % 0.00 in
01:18 44.1 °F 32.7 °F 30.49 in NNW 1.0 mph 3.0 mph 64 % 0.00 in
01:23 43.9 °F 32.5 °F 30.49 in Calm   3.0 mph 64 % 0.00 in
01:28 43.7 °F 32.7 °F 30.49 in Calm   3.0 mph 65 % 0.00 in
01:33 43.7 °F 32.7 °F 30.49 in Calm   2.0 mph 65 % 0.00 in
01:38 43.5 °F 32.5 °F 30.49 in Calm   2.0 mph 65 % 0.00 in
01:43 43.7 °F 32.4 °F 30.49 in NNW 1.0 mph 5.0 mph 64 % 0.00 in
01:48 43.5 °F 32.2 °F 30.49 in Calm   5.0 mph 64 % 0.00 in
01:53 43.5 °F 32.2 °F 30.49 in Calm   5.0 mph 64 % 0.00 in
01:58 43.3 °F 32.4 °F 30.50 in NNW 1.0 mph 3.0 mph 65 % 0.00 in
02:03 43.2 °F 32.2 °F 30.49 in Calm   3.0 mph 65 % 0.00 in
02:08 43.0 °F 32.0 °F 30.49 in Calm   2.0 mph 65 % 0.00 in
02:13 42.8 °F 32.2 °F 30.48 in North 1.0 mph 2.0 mph 66 % 0.00 in
02:18 42.6 °F 32.0 °F 30.49 in Calm   2.0 mph 66 % 0.00 in
02:23 42.4 °F 31.8 °F 30.49 in Calm   2.0 mph 66 % 0.00 in
02:28 42.4 °F 31.8 °F 30.49 in Calm   2.0 mph 66 % 0.00 in
02:34 42.3 °F 32.2 °F 30.49 in Calm   1.0 mph 67 % 0.00 in
02:39 42.3 °F 32.2 °F 30.48 in NNW 1.0 mph 2.0 mph 67 % 0.00 in
02:44 42.1 °F 32.0 °F 30.48 in Calm   2.0 mph 67 % 0.00 in
02:49 42.1 °F 32.0 °F 30.48 in Calm   2.0 mph 67 % 0.00 in
02:54 42.1 °F 32.0 °F 30.48 in Calm   2.0 mph 67 % 0.00 in
02:59 41.9 °F 31.8 °F 30.48 in North 1.0 mph 2.0 mph 67 % 0.00 in
03:04 41.7 °F 31.6 °F 30.48 in Calm   2.0 mph 67 % 0.00 in
03:09 41.7 °F 31.6 °F 30.48 in Calm   2.0 mph 67 % 0.00 in
03:14 41.5 °F 31.5 °F 30.48 in Calm   1.0 mph 67 % 0.00 in
03:19 41.4 °F 31.6 °F 30.48 in Calm   1.0 mph 68 % 0.00 in
03:24 41.4 °F 31.6 °F 30.48 in Calm   1.0 mph 68 % 0.00 in
03:29 41.2 °F 31.5 °F 30.48 in Calm   1.0 mph 68 % 0.00 in
03:34 41.2 °F 31.5 °F 30.48 in Calm   1.0 mph 68 % 0.00 in
03:39 41.2 °F 31.5 °F 30.48 in Calm   1.0 mph 68 % 0.00 in
03:44 41.2 °F 31.1 °F 30.48 in Calm   3.0 mph 67 % 0.00 in
03:49 41.2 °F 31.1 °F 30.48 in Calm   3.0 mph 67 % 0.00 in
03:54 41.2 °F 31.1 °F 30.48 in NNW 1.0 mph 3.0 mph 67 % 0.00 in
03:59 41.5 °F 31.1 °F 30.48 in Calm   4.0 mph 66 % 0.00 in
04:04 41.5 °F 30.7 °F 30.48 in NNE 1.0 mph 4.0 mph 65 % 0.00 in
04:09 41.9 °F 30.9 °F 30.48 in NNW 1.0 mph 4.0 mph 65 % 0.00 in
04:14 42.1 °F 30.7 °F 30.48 in NE 1.0 mph 4.0 mph 64 % 0.00 in
04:19 42.3 °F 30.9 °F 30.47 in NNW 1.0 mph 5.0 mph 64 % 0.00 in
04:24 42.3 °F 30.9 °F 30.48 in North 2.0 mph 5.0 mph 64 % 0.00 in
04:29 42.3 °F 30.9 °F 30.48 in ENE 1.0 mph 5.0 mph 64 % 0.00 in
04:34 42.3 °F 30.9 °F 30.48 in Calm   4.0 mph 64 % 0.00 in
04:39 42.1 °F 30.7 °F 30.48 in NNW 1.0 mph 4.0 mph 64 % 0.00 in
04:44 42.1 °F 30.7 °F 30.47 in NNE 2.0 mph 5.0 mph 64 % 0.00 in
04:49 41.7 °F 30.7 °F 30.47 in North 3.0 mph 5.0 mph 65 % 0.00 in
04:54 41.7 °F 30.7 °F 30.47 in NNE 3.0 mph 5.0 mph 65 % 0.00 in
04:59 41.5 °F 31.1 °F 30.47 in Calm   3.0 mph 66 % 0.00 in
05:04 41.4 °F 30.9 °F 30.47 in Calm   3.0 mph 66 % 0.00 in
05:09 41.0 °F 30.9 °F 30.47 in Calm   3.0 mph 67 % 0.00 in
05:14 40.6 °F 30.6 °F 30.47 in Calm   3.0 mph 67 % 0.00 in
05:19 40.1 °F 30.4 °F 30.47 in Calm   1.0 mph 68 % 0.00 in
05:24 39.7 °F 30.4 °F 30.47 in Calm   1.0 mph 69 % 0.00 in
05:29 39.6 °F 30.9 °F 30.47 in Calm     71 % 0.00 in
05:34 39.4 °F 30.7 °F 30.47 in Calm     71 % 0.00 in
05:39 39.2 °F 30.9 °F 30.47 in Calm     72 % 0.00 in
05:44 39.0 °F 30.7 °F 30.47 in Calm   2.0 mph 72 % 0.00 in
05:49 39.0 °F 30.7 °F 30.47 in Calm   2.0 mph 72 % 0.00 in
05:54 38.8 °F 30.9 °F 30.48 in Calm   2.0 mph 73 % 0.00 in
05:59 38.7 °F 30.7 °F 30.48 in Calm   1.0 mph 73 % 0.00 in
06:04 38.7 °F 30.7 °F 30.48 in Calm   1.0 mph 73 % 0.00 in
06:09 38.7 °F 31.1 °F 30.47 in Calm   1.0 mph 74 % 0.00 in
06:14 38.5 °F 30.9 °F 30.47 in NNW 1.0 mph 1.0 mph 74 % 0.00 in
06:19 38.5 °F 31.3 °F 30.47 in Calm   1.0 mph 75 % 0.00 in
06:24 38.3 °F 31.1 °F 30.47 in Calm   1.0 mph 75 % 0.00 in
06:29 38.1 °F 30.9 °F 30.47 in Calm   1.0 mph 75 % 0.00 in
06:34 37.9 °F 31.1 °F 30.47 in Calm   1.0 mph 76 % 0.00 in
06:39 37.8 °F 30.9 °F 30.48 in Calm   1.0 mph 76 % 0.00 in
06:44 37.8 °F 31.3 °F 30.48 in Calm   1.0 mph 77 % 0.00 in
06:49 37.6 °F 31.1 °F 30.48 in Calm   1.0 mph 77 % 0.00 in
06:54 37.6 °F 31.1 °F 30.48 in Calm   1.0 mph 77 % 0.00 in
06:59 37.6 °F 31.1 °F 30.48 in Calm   1.0 mph 77 % 0.00 in
07:04 37.6 °F 31.1 °F 30.48 in Calm   1.0 mph 77 % 0.00 in
07:09 37.6 °F 31.1 °F 30.49 in Calm   1.0 mph 77 % 0.00 in
07:14 37.8 °F 31.3 °F 30.49 in Calm   1.0 mph 77 % 0.00 in
07:19 37.8 °F 31.3 °F 30.49 in Calm   1.0 mph 77 % 0.00 in
07:24 37.9 °F 31.1 °F 30.49 in Calm   1.0 mph 76 % 0.00 in
07:29 38.1 °F 31.3 °F 30.49 in North 1.0 mph 1.0 mph 76 % 0.00 in
07:34 38.3 °F 31.5 °F 30.49 in Calm   1.0 mph 76 % 0.00 in
07:39 38.5 °F 31.3 °F 30.50 in Calm   1.0 mph 75 % 0.00 in
07:44 38.7 °F 31.5 °F 30.50 in Calm   2.0 mph 75 % 0.00 in
07:49 38.7 °F 31.5 °F 30.50 in Calm   2.0 mph 75 % 0.00 in
07:54 38.8 °F 31.6 °F 30.50 in Calm   2.0 mph 75 % 0.00 in
07:59 39.0 °F 31.8 °F 30.50 in Calm   2.0 mph 75 % 0.00 in
08:04 39.4 °F 32.2 °F 30.50 in NNW 1.0 mph 2.0 mph 75 % 0.00 in
08:09 39.7 °F 32.2 °F 30.50 in Calm   2.0 mph 74 % 0.00 in
08:14 40.3 °F 32.4 °F 30.50 in Calm   3.0 mph 73 % 0.00 in
08:19 40.6 °F 32.4 °F 30.50 in Calm   3.0 mph 72 % 0.00 in
08:24 41.4 °F 33.1 °F 30.50 in Calm   3.0 mph 72 % 0.00 in
08:29 41.9 °F 32.9 °F 30.50 in ENE 3.0 mph 3.0 mph 70 % 0.00 in
08:34 42.4 °F 32.7 °F 30.51 in NNE 1.0 mph 4.0 mph 68 % 0.00 in
08:39 43.0 °F 32.7 °F 30.50 in East 3.0 mph 7.0 mph 67 % 0.00 in
08:44 43.5 °F 32.9 °F 30.50 in NNW 2.0 mph 7.0 mph 66 % 0.00 in
08:49 43.9 °F 32.9 °F 30.50 in Calm   7.0 mph 65 % 0.00 in
08:54 44.2 °F 33.3 °F 30.50 in Calm   7.0 mph 65 % 0.00 in
08:59 44.8 °F 33.3 °F 30.50 in NNW 3.0 mph 7.0 mph 64 % 0.00 in
09:04 44.8 °F 32.9 °F 30.50 in NNE 2.0 mph 7.0 mph 63 % 0.00 in
09:09 45.1 °F 33.3 °F 30.50 in NNW 2.0 mph 7.0 mph 63 % 0.00 in
09:14 45.7 °F 33.8 °F 30.50 in East 4.0 mph 9.0 mph 63 % 0.00 in
09:19 46.0 °F 32.9 °F 30.50 in NNE 3.0 mph 9.0 mph 60 % 0.00 in
09:24 46.0 °F 32.9 °F 30.50 in East 6.0 mph 9.0 mph 60 % 0.00 in
09:29 46.0 °F 33.3 °F 30.50 in North 3.0 mph 9.0 mph 61 % 0.00 in
09:34 46.6 °F 33.8 °F 30.50 in NW 1.0 mph 9.0 mph 61 % 0.00 in
09:39 46.9 °F 33.8 °F 30.50 in Calm   9.0 mph 60 % 0.00 in
09:44 47.3 °F 33.3 °F 30.51 in ESE 5.0 mph 11.0 mph 58 % 0.00 in
09:49 47.3 °F 33.6 °F 30.51 in East 5.0 mph 11.0 mph 59 % 0.00 in
09:54 47.5 °F 34.3 °F 30.50 in NNE 4.0 mph 11.0 mph 60 % 0.00 in
09:59 48.2 °F 34.5 °F 30.50 in Calm   7.0 mph 59 % 0.00 in
10:04 48.6 °F 34.0 °F 30.50 in ENE 2.0 mph 8.0 mph 57 % 0.00 in
10:09 48.6 °F 34.0 °F 30.50 in ESE 2.0 mph 9.0 mph 57 % 0.00 in
10:14 48.7 °F 34.2 °F 30.50 in East 6.0 mph 9.0 mph 57 % 0.00 in
10:19 48.7 °F 34.2 °F 30.50 in Calm   9.0 mph 57 % 0.00 in
10:24 49.3 °F 35.1 °F 30.50 in NE 2.0 mph 7.0 mph 58 % 0.00 in
10:29 49.8 °F 34.7 °F 30.50 in East 3.0 mph 7.0 mph 56 % 0.00 in
10:34 50.2 °F 35.1 °F 30.50 in NE 1.0 mph 6.0 mph 56 % 0.00 in
10:35 50.4 °F 35.2 °F 30.50 in East 3.0 mph 6.0 mph 56 % 0.00 in
10:40 50.4 °F 34.9 °F 30.49 in North 7.0 mph 7.0 mph 55 % 0.00 in
10:45 50.7 °F 35.1 °F 30.49 in Calm   7.0 mph 55 % 0.00 in
10:50 51.4 °F 35.8 °F 30.49 in Calm   7.0 mph 55 % 0.00 in
10:55 52.2 °F 36.0 °F 30.49 in North 1.0 mph 7.0 mph 54 % 0.00 in
11:00 52.5 °F 35.4 °F 30.49 in ENE 3.0 mph 7.0 mph 52 % 0.00 in
11:05 52.7 °F 35.6 °F 30.48 in NNW 2.0 mph 7.0 mph 52 % 0.00 in
11:10 53.1 °F 35.4 °F 30.48 in East 1.0 mph 11.0 mph 51 % 0.00 in
11:15 53.4 °F 35.8 °F 30.48 in NE 3.0 mph 11.0 mph 51 % 0.00 in
11:20 53.8 °F 35.6 °F 30.48 in WNW 1.0 mph 11.0 mph 50 % 0.00 in
11:25 54.3 °F 35.6 °F 30.47 in East 4.0 mph 6.0 mph 49 % 0.00 in
11:30 54.7 °F 36.0 °F 30.47 in East 2.0 mph 9.0 mph 49 % 0.00 in
11:35 54.9 °F 36.1 °F 30.47 in ENE 2.0 mph 9.0 mph 49 % 0.00 in
11:40 55.4 °F 36.0 °F 30.47 in Calm   9.0 mph 48 % 0.00 in
11:45 55.8 °F 34.7 °F 30.46 in East 2.0 mph 7.0 mph 45 % 0.00 in
11:50 55.6 °F 35.1 °F 30.45 in NNE 1.0 mph 7.0 mph 46 % 0.00 in
11:55 55.8 °F 35.2 °F 30.45 in North 1.0 mph 7.0 mph 46 % 0.00 in
12:00 56.3 °F 35.2 °F 30.44 in SSE 3.0 mph 6.0 mph 45 % 0.00 in
12:05 56.8 °F 35.8 °F 30.44 in SE 2.0 mph 6.0 mph 45 % 0.00 in
12:11 57.0 °F 34.2 °F 30.44 in NNW 2.0 mph 7.0 mph 42 % 0.00 in
12:16 57.4 °F 35.6 °F 30.44 in Calm   7.0 mph 44 % 0.00 in
12:21 57.9 °F 33.8 °F 30.44 in South 4.0 mph 7.0 mph 40 % 0.00 in
12:26 58.3 °F 34.0 °F 30.43 in SE 4.0 mph 7.0 mph 40 % 0.00 in
12:31 58.5 °F 34.2 °F 30.43 in SW 1.0 mph 7.0 mph 40 % 0.00 in
12:36 58.8 °F 34.0 °F 30.43 in North 1.0 mph 6.0 mph 39 % 0.00 in
12:41 59.0 °F 33.4 °F 30.42 in ESE 3.0 mph 6.0 mph 38 % 0.00 in
12:46 59.4 °F 35.1 °F 30.42 in South 1.0 mph 5.0 mph 40 % 0.00 in
12:51 60.3 °F 34.5 °F 30.42 in ESE 4.0 mph 4.0 mph 38 % 0.00 in
12:56 60.6 °F 35.6 °F 30.41 in NNW 1.0 mph 4.0 mph 39 % 0.00 in
13:01 61.5 °F 35.6 °F 30.40 in SW 1.0 mph 4.0 mph 38 % 0.00 in
13:06 61.9 °F 36.0 °F 30.40 in Calm   5.0 mph 38 % 0.00 in
13:11 61.7 °F 34.5 °F 30.40 in East 1.0 mph 6.0 mph 36 % 0.00 in
13:16 61.2 °F 35.4 °F 30.39 in Calm   6.0 mph 38 % 0.00 in
13:21 61.3 °F 35.6 °F 30.39 in East 2.0 mph 6.0 mph 38 % 0.00 in
13:26 61.5 °F 35.1 °F 30.39 in ESE 2.0 mph 5.0 mph 37 % 0.00 in
13:31 61.3 °F 34.2 °F 30.38 in SSW 3.0 mph 8.0 mph 36 % 0.00 in
13:36 61.3 °F 33.4 °F 30.38 in SE 4.0 mph 8.0 mph 35 % 0.00 in
13:41 61.2 °F 34.0 °F 30.38 in SE 1.0 mph 8.0 mph 36 % 0.00 in
13:46 61.3 °F 34.9 °F 30.38 in SSE 1.0 mph 7.0 mph 37 % 0.00 in
13:51 62.1 °F 35.4 °F 30.37 in ESE 2.0 mph 7.0 mph 37 % 0.00 in
13:56 61.9 °F 34.0 °F 30.37 in SSE 2.0 mph 7.0 mph 35 % 0.00 in
14:01 61.5 °F 35.1 °F 30.37 in Calm   6.0 mph 37 % 0.00 in
14:06 62.1 °F 35.4 °F 30.37 in ESE 3.0 mph 6.0 mph 37 % 0.00 in
14:11 62.4 °F 34.3 °F 30.37 in SE 6.0 mph 8.0 mph 35 % 0.00 in
14:16 62.2 °F 32.7 °F 30.37 in SSE 5.0 mph 8.0 mph 33 % 0.00 in
14:21 62.1 °F 32.5 °F 30.36 in West 1.0 mph 8.0 mph 33 % 0.00 in
14:26 62.2 °F 32.7 °F 30.36 in South 1.0 mph 8.0 mph 33 % 0.00 in
14:31 62.2 °F 32.7 °F 30.36 in SSE 3.0 mph 7.0 mph 33 % 0.00 in
14:36 61.9 °F 30.0 °F 30.36 in South 3.0 mph 5.0 mph 30 % 0.00 in
14:41 61.5 °F 30.6 °F 30.36 in ESE 3.0 mph 7.0 mph 31 % 0.00 in
14:46 61.3 °F 33.4 °F 30.36 in SE 4.0 mph 7.0 mph 35 % 0.00 in
14:51 61.2 °F 33.3 °F 30.36 in SSW 3.0 mph 7.0 mph 35 % 0.00 in
14:56 61.2 °F 34.0 °F 30.36 in SSW 3.0 mph 7.0 mph 36 % 0.00 in
15:01 61.3 °F 34.9 °F 30.35 in SE 1.0 mph 7.0 mph 37 % 0.00 in
15:06 61.5 °F 34.3 °F 30.35 in SE 2.0 mph 7.0 mph 36 % 0.00 in
15:11 61.5 °F 32.9 °F 30.35 in Calm   5.0 mph 34 % 0.00 in
15:16 61.9 °F 33.3 °F 30.35 in ESE 2.0 mph 5.0 mph 34 % 0.00 in
15:21 62.1 °F 32.5 °F 30.35 in SE 1.0 mph 5.0 mph 33 % 0.00 in
15:26 62.1 °F 32.5 °F 30.35 in SE 3.0 mph 7.0 mph 33 % 0.00 in
15:31 61.9 °F 33.3 °F 30.35 in Calm   7.0 mph 34 % 0.00 in
15:36 62.1 °F 33.4 °F 30.35 in South 3.0 mph 7.0 mph 34 % 0.00 in
15:41 62.2 °F 32.7 °F 30.34 in South 4.0 mph 6.0 mph 33 % 0.00 in
15:46 61.9 °F 32.5 °F 30.34 in South 3.0 mph 7.0 mph 33 % 0.00 in
15:51 61.9 °F 30.9 °F 30.34 in ESE 3.0 mph 7.0 mph 31 % 0.00 in
15:56 62.1 °F 31.8 °F 30.34 in SW 4.0 mph 7.0 mph 32 % 0.00 in
16:01 62.1 °F 31.1 °F 30.34 in SSE 3.0 mph 8.0 mph 31 % 0.00 in
16:06 62.1 °F 31.8 °F 30.34 in SE 3.0 mph 8.0 mph 32 % 0.00 in
16:11 62.1 °F 32.5 °F 30.34 in SE 1.0 mph 8.0 mph 33 % 0.00 in
16:16 62.1 °F 32.5 °F 30.34 in ESE 2.0 mph 8.0 mph 33 % 0.00 in
16:21 62.1 °F 33.4 °F 30.33 in SSE 4.0 mph 6.0 mph 34 % 0.00 in
16:26 61.9 °F 34.0 °F 30.33 in Calm   7.0 mph 35 % 0.00 in
16:31 61.9 °F 34.0 °F 30.33 in Calm   7.0 mph 35 % 0.00 in
16:36 61.9 °F 34.7 °F 30.33 in ESE 5.0 mph 7.0 mph 36 % 0.00 in
16:41 61.5 °F 34.3 °F 30.33 in SE 2.0 mph 5.0 mph 36 % 0.00 in
16:46 61.5 °F 34.3 °F 30.33 in SSE 2.0 mph 5.0 mph 36 % 0.00 in
16:51 61.3 °F 34.2 °F 30.33 in SSE 4.0 mph 5.0 mph 36 % 0.00 in
16:56 61.3 °F 34.2 °F 30.33 in SE 1.0 mph 7.0 mph 36 % 0.00 in
17:01 61.3 °F 34.2 °F 30.33 in SW 3.0 mph 7.0 mph 36 % 0.00 in
17:06 61.2 °F 33.3 °F 30.33 in South 5.0 mph 7.0 mph 35 % 0.00 in
17:11 60.8 °F 33.6 °F 30.32 in SSW 1.0 mph 5.0 mph 36 % 0.00 in
17:13 60.6 °F 33.4 °F 30.32 in SW 2.0 mph 5.0 mph 36 % 0.00 in
17:18 60.3 °F 33.8 °F 30.32 in SW 4.0 mph 5.0 mph 37 % 0.00 in
17:23 59.9 °F 33.6 °F 30.32 in SSE 2.0 mph 5.0 mph 37 % 0.00 in
17:28 59.7 °F 33.4 °F 30.33 in South 4.0 mph 5.0 mph 37 % 0.00 in
17:33 59.4 °F 33.8 °F 30.33 in South 1.0 mph 5.0 mph 38 % 0.00 in
17:38 59.0 °F 34.2 °F 30.33 in SSE 2.0 mph 5.0 mph 39 % 0.00 in
17:43 58.6 °F 34.3 °F 30.33 in Calm   5.0 mph 40 % 0.00 in
17:48 58.5 °F 34.2 °F 30.32 in East 2.0 mph 3.0 mph 40 % 0.00 in
17:53 58.5 °F 34.2 °F 30.32 in SE 3.0 mph 5.0 mph 40 % 0.00 in
17:58 58.3 °F 34.0 °F 30.32 in Calm   5.0 mph 40 % 0.00 in
18:03 58.1 °F 34.5 °F 30.32 in SE 1.0 mph 5.0 mph 41 % 0.00 in
18:08 57.7 °F 34.2 °F 30.32 in Calm   4.0 mph 41 % 0.00 in
18:13 57.4 °F 34.5 °F 30.32 in Calm   3.0 mph 42 % 0.00 in
18:18 57.0 °F 34.7 °F 30.32 in Calm   3.0 mph 43 % 0.00 in
18:23 56.7 °F 34.3 °F 30.32 in Calm   3.0 mph 43 % 0.00 in
18:28 56.1 °F 34.5 °F 30.31 in Calm   1.0 mph 44 % 0.00 in
18:33 55.9 °F 34.9 °F 30.31 in Calm   2.0 mph 45 % 0.00 in
18:38 55.6 °F 34.5 °F 30.31 in ESE 1.0 mph 2.0 mph 45 % 0.00 in
18:43 55.2 °F 34.9 °F 30.31 in SE 1.0 mph 2.0 mph 46 % 0.00 in
18:48 55.2 °F 35.4 °F 30.31 in SE 3.0 mph 3.0 mph 47 % 0.00 in
18:53 55.2 °F 36.0 °F 30.32 in ESE 4.0 mph 4.0 mph 48 % 0.00 in
18:58 55.4 °F 36.5 °F 30.31 in SE 2.0 mph 6.0 mph 49 % 0.00 in
19:03 55.4 °F 37.0 °F 30.32 in South 1.0 mph 6.0 mph 50 % 0.00 in
19:08 55.2 °F 36.9 °F 30.32 in SSW 1.0 mph 6.0 mph 50 % 0.00 in
19:13 54.9 °F 37.0 °F 30.32 in SSW 3.0 mph 4.0 mph 51 % 0.00 in
19:18 54.5 °F 37.2 °F 30.32 in SSE 3.0 mph 4.0 mph 52 % 0.00 in
19:23 54.3 °F 36.5 °F 30.32 in SE 3.0 mph 4.0 mph 51 % 0.00 in
19:28 54.1 °F 36.3 °F 30.32 in SSE 3.0 mph 4.0 mph 51 % 0.00 in
19:33 54.0 °F 36.3 °F 30.32 in SSE 1.0 mph 5.0 mph 51 % 0.00 in
19:38 53.8 °F 36.1 °F 30.32 in SE 4.0 mph 5.0 mph 51 % 0.00 in
19:43 53.8 °F 36.1 °F 30.32 in South 2.0 mph 6.0 mph 51 % 0.00 in
19:48 53.4 °F 35.8 °F 30.32 in SE 1.0 mph 6.0 mph 51 % 0.00 in
19:53 53.2 °F 35.6 °F 30.33 in SSE 1.0 mph 6.0 mph 51 % 0.00 in
19:58 53.1 °F 35.4 °F 30.33 in ESE 3.0 mph 4.0 mph 51 % 0.00 in
20:03 52.9 °F 35.2 °F 30.33 in SE 4.0 mph 6.0 mph 51 % 0.00 in
20:08 52.5 °F 34.9 °F 30.34 in South 2.0 mph 6.0 mph 51 % 0.00 in
20:13 52.3 °F 35.2 °F 30.33 in ESE 3.0 mph 6.0 mph 52 % 0.00 in
20:18 52.2 °F 35.1 °F 30.33 in SE 3.0 mph 5.0 mph 52 % 0.00 in
20:23 52.0 °F 34.9 °F 30.32 in SE 2.0 mph 4.0 mph 52 % 0.00 in
20:28 51.8 °F 34.7 °F 30.33 in SE 1.0 mph 4.0 mph 52 % 0.00 in
20:33 51.6 °F 35.1 °F 30.33 in SE 1.0 mph 4.0 mph 53 % 0.00 in
20:38 51.3 °F 35.2 °F 30.33 in SE 2.0 mph 4.0 mph 54 % 0.00 in
20:43 51.3 °F 36.1 °F 30.33 in ESE 4.0 mph 4.0 mph 56 % 0.00 in
20:48 51.3 °F 36.1 °F 30.33 in SE 3.0 mph 8.0 mph 56 % 0.00 in
20:53 51.3 °F 36.5 °F 30.33 in SE 3.0 mph 8.0 mph 57 % 0.00 in
20:58 51.3 °F 37.0 °F 30.33 in SE 1.0 mph 8.0 mph 58 % 0.00 in
21:03 50.9 °F 36.7 °F 30.32 in SE 2.0 mph 7.0 mph 58 % 0.00 in
21:08 50.5 °F 37.2 °F 30.32 in ESE 4.0 mph 6.0 mph 60 % 0.00 in
21:13 50.4 °F 37.0 °F 30.32 in South 2.0 mph 6.0 mph 60 % 0.00 in
21:18 50.2 °F 37.6 °F 30.32 in SE 3.0 mph 6.0 mph 62 % 0.00 in
21:23 49.8 °F 37.8 °F 30.32 in South 1.0 mph 6.0 mph 63 % 0.00 in
21:28 49.6 °F 37.6 °F 30.32 in SSE 3.0 mph 6.0 mph 63 % 0.00 in
21:33 49.5 °F 38.1 °F 30.32 in SSE 2.0 mph 6.0 mph 65 % 0.00 in
21:38 49.1 °F 38.3 °F 30.32 in South 3.0 mph 6.0 mph 66 % 0.00 in
21:43 48.9 °F 38.5 °F 30.32 in SSE 2.0 mph 6.0 mph 67 % 0.00 in
21:48 48.7 °F 38.7 °F 30.31 in SW 4.0 mph 5.0 mph 68 % 0.00 in
21:53 48.7 °F 38.7 °F 30.31 in SE 2.0 mph 6.0 mph 68 % 0.00 in
21:58 48.4 °F 38.3 °F 30.31 in South 1.0 mph 6.0 mph 68 % 0.00 in
22:03 48.0 °F 38.3 °F 30.32 in SSW 3.0 mph 6.0 mph 69 % 0.00 in
22:08 47.8 °F 38.5 °F 30.32 in SSW 2.0 mph 5.0 mph 70 % 0.00 in
22:13 47.7 °F 38.3 °F 30.31 in SSE 3.0 mph 5.0 mph 70 % 0.00 in
22:18 47.5 °F 38.1 °F 30.32 in ESE 3.0 mph 5.0 mph 70 % 0.00 in
22:23 47.3 °F 37.9 °F 30.32 in SSE 1.0 mph 5.0 mph 70 % 0.00 in
22:28 47.1 °F 37.8 °F 30.32 in SSE 1.0 mph 5.0 mph 70 % 0.00 in
22:33 46.9 °F 37.6 °F 30.31 in SSE 1.0 mph 5.0 mph 70 % 0.00 in
22:38 46.8 °F 37.9 °F 30.30 in ESE 2.0 mph 4.0 mph 71 % 0.00 in
22:43 46.6 °F 37.8 °F 30.30 in ESE 3.0 mph 4.0 mph 71 % 0.00 in
22:48 46.6 °F 37.8 °F 30.31 in SSE 1.0 mph 5.0 mph 71 % 0.00 in
22:53 46.4 °F 37.6 °F 30.30 in SE 1.0 mph 5.0 mph 71 % 0.00 in
22:58 46.2 °F 37.4 °F 30.30 in South 2.0 mph 5.0 mph 71 % 0.00 in
23:03 46.0 °F 37.2 °F 30.30 in Calm   4.0 mph 71 % 0.00 in
23:08 45.7 °F 36.9 °F 30.30 in Calm   4.0 mph 71 % 0.00 in
23:13 45.3 °F 36.5 °F 30.30 in Calm   4.0 mph 71 % 0.00 in
23:18 45.1 °F 36.7 °F 30.30 in Calm   3.0 mph 72 % 0.00 in
23:23 45.0 °F 36.5 °F 30.30 in Calm   1.0 mph 72 % 0.00 in
23:28 44.8 °F 36.3 °F 30.30 in Calm   2.0 mph 72 % 0.00 in
23:33 44.4 °F 36.0 °F 30.30 in Calm   2.0 mph 72 % 0.00 in
23:38 44.2 °F 36.1 °F 30.30 in Calm   2.0 mph 73 % 0.00 in
23:43 44.1 °F 36.0 °F 30.30 in Calm   1.0 mph 73 % 0.00 in
23:48 43.9 °F 36.1 °F 30.29 in Calm   1.0 mph 74 % 0.00 in
23:53 43.9 °F 36.1 °F 30.29 in Calm   1.0 mph 74 % 0.00 in
23:58 43.7 °F 36.3 °F 30.29 in SE 1.0 mph 1.0 mph 75 % 0.00 in
Spring, Texas: Villages of Bridgestone
Compliments of Weather Underground - 2.75 mb

Script developed by  Jim McMurry - jmcmurry@mwt.net Adapted for the template by  Wim van der Kuil - Leuven-Template.eu

You find our weather info also at:

UK Metoffice

WeatherCloud

Weather Underground

Mid-South Weather Network

AWEKAS

Citizen Weather Observer Program (CWOP)

HAMweather, WeatherForYou, PWS Weather

Equipment we use:

Weather-station
Davis Vantage Vue

Weather-program
Meteohub

Weather-server
Debian 7.9 x86 (Guest)

Provider
DreamHost

Davis Vantage Vue

Meteohub

Debian 7.9 x86 (Guest)

DreamHost